GPS BIII-1

Last updated on Tue Sep 22 2026 00:03:02 GMT+0000 (Coordinated Universal Time)

1 43873U 18109A 26263.98170333 .00000034 00000+0 00000+0 0 9992 2 43873 55.7448 88.4076 0040363 196.2348 335.9900 2.00565542 56999
UTC large
Height (km)
Speed (km/s)
/
Latitude / Longitude
Inclination (degrees)
Orbital Period (minutes)
Azimuth
Elevation
Range (km)
Doppler Factor

Next 0 passes for location: London (51.5072 / 0.1276)

No passes found over London.
GPS BIII-1